| time (UTC) | temp C | wind direction | speed KPH | gust KPH | rain 1hr cm | rain 24hr cm | rain mn cm | humidity % | barometer mb |
| 20260901040204 | 26 | 143 | 4.8 | 11.3 | 0.00 | 0.00 | 0.00 | 37 | 1020.4 |
| 20260901035644 | 26 | 110 | 0.0 | 6.4 | 0.00 | 0.00 | 0.00 | 37 | 1020.4 |
| 20260901035354 | 27 | 126 | 0.0 | 6.4 | 0.00 | 0.00 | 0.00 | 36 | 1020.4 |
| 20260901034629 | 27 | 132 | 0.0 | 9.7 | 0.00 | 0.00 | 0.00 | 36 | 1020.4 |
| 20260901034110 | 27 | 114 | 0.0 | 9.7 | 0.00 | 0.00 | 0.00 | 36 | 1020.4 |
| 20260901033603 | 27 | 100 | 0.0 | 11.3 | 0.00 | 0.00 | 0.00 | 36 | 1020.0 |
| 20260901033055 | 26 | 124 | 1.6 | 11.3 | 0.00 | 0.00 | 0.00 | 37 | 1020.0 |
| 20260901032544 | 27 | 119 | 4.8 | 17.7 | 0.00 | 0.00 | 0.00 | 36 | 1020.0 |
| 20260901032042 | 27 | 127 | 12.9 | 17.7 | 0.00 | 0.00 | 0.00 | 36 | 1020.0 |
| 20260901031534 | 27 | 136 | 0.0 | 9.7 | 0.00 | 0.00 | 0.00 | 36 | 1020.0 |
| 20260901031015 | 27 | 126 | 0.0 | 4.8 | 0.00 | 0.00 | 0.00 | 36 | 1019.7 |
| 20260901030511 | 27 | 106 | 0.0 | 1.6 | 0.00 | 0.00 | 0.00 | 36 | 1019.7 |
| 20260901030451 | 27 | 112 | 0.0 | 6.4 | 0.00 | 0.00 | 0.00 | 36 | 1019.7 |
| 20260901025506 | 27 | 127 | 0.0 | 9.7 | 0.00 | 0.00 | 0.00 | 35 | 1019.4 |
| 20260901025002 | 27 | 120 | 0.0 | 9.7 | 0.00 | 0.00 | 0.00 | 35 | 1019.7 |
| 20260901024707 | 27 | 128 | 1.6 | 9.7 | 0.00 | 0.00 | 0.00 | 34 | 1019.4 |
| 20260901023933 | 27 | 116 | 0.0 | 12.9 | 0.00 | 0.00 | 0.00 | 34 | 1019.4 |
| 20260901023423 | 28 | 144 | 0.0 | 12.9 | 0.00 | 0.00 | 0.00 | 33 | 1019.0 |
| 20260901022913 | 28 | 128 | 0.0 | 6.4 | 0.00 | 0.00 | 0.00 | 33 | 1018.7 |
| 20260901022406 | 28 | 108 | 3.2 | 6.4 | 0.00 | 0.00 | 0.00 | 33 | 1019.0 |
| 20260901021907 | 28 | 134 | 0.0 | 12.9 | 0.00 | 0.00 | 0.00 | 33 | 1018.7 |
| 20260901021406 | 28 | 123 | 0.0 | 12.9 | 0.00 | 0.00 | 0.00 | 32 | 1018.7 |
| 20260901020906 | 28 | 143 | 0.0 | 12.9 | 0.00 | 0.00 | 0.00 | 32 | 1018.7 |
| 20260901020404 | 28 | 129 | 6.4 | 17.7 | 0.00 | 0.00 | 0.00 | 31 | 1018.7 |
| 20260901015904 | 28 | 122 | 3.2 | 17.7 | 0.00 | 0.00 | 0.00 | 31 | 1018.7 |
| 20260901015358 | 28 | 124 | 3.2 | 11.3 | 0.00 | 0.00 | 0.00 | 31 | 1018.3 |
| 20260901014848 | 28 | 121 | 0.0 | 12.9 | 0.00 | 0.00 | 0.00 | 30 | 1018.3 |
| 20260901014328 | 29 | 120 | 1.6 | 12.9 | 0.00 | 0.00 | 0.00 | 30 | 1018.3 |
| 20260901013815 | 29 | 116 | 3.2 | 17.7 | 0.00 | 0.00 | 0.00 | 30 | 1018.3 |
| 20260901013315 | 29 | 125 | 1.6 | 17.7 | 0.00 | 0.00 | 0.00 | 30 | 1018.3 |
| 20260901012813 | 29 | 109 | 0.0 | 20.9 | 0.00 | 0.00 | 0.00 | 31 | 1018.3 |
| 20260901012259 | 29 | 137 | 0.0 | 20.9 | 0.00 | 0.00 | 0.00 | 31 | 1018.3 |
| 20260901011758 | 30 | 126 | 6.4 | 20.9 | 0.00 | 0.00 | 0.00 | 31 | 1018.3 |
| 20260901011248 | 30 | 108 | 0.0 | 20.9 | 0.00 | 0.00 | 0.00 | 31 | 1018.3 |
| 20260901010749 | 30 | 122 | 11.3 | 17.7 | 0.00 | 0.00 | 0.00 | 30 | 1018.3 |
| 20260901010245 | 30 | 125 | 0.0 | 14.5 | 0.00 | 0.00 | 0.00 | 29 | 1018.0 |
| 20260901005733 | 30 | 128 | 3.2 | 20.9 | 0.00 | 0.00 | 0.00 | 30 | 1018.3 |
| 20260901005439 | 30 | 136 | 0.0 | 22.5 | 0.00 | 0.00 | 0.00 | 30 | 1018.0 |
| 20260901004706 | 30 | 81 | 12.9 | 22.5 | 0.00 | 0.00 | 0.00 | 29 | 1018.3 |
| 20260901004206 | 30 | 125 | 9.7 | 22.5 | 0.00 | 0.00 | 0.00 | 29 | 1018.3 |
| 20260901003648 | 30 | 122 | 1.6 | 22.5 | 0.00 | 0.00 | 0.00 | 29 | 1018.0 |
| 20260901003135 | 31 | 125 | 0.0 | 24.1 | 0.00 | 0.00 | 0.00 | 30 | 1018.3 |
| 20260901002630 | 31 | 131 | 11.3 | 25.7 | 0.00 | 0.00 | 0.00 | 29 | 1018.3 |
| 20260901002126 | 31 | 101 | 12.9 | 25.7 | 0.00 | 0.00 | 0.00 | 29 | 1018.0 |
| 20260901001622 | 31 | 113 | 3.2 | 24.1 | 0.00 | 0.00 | 0.00 | 29 | 1018.3 |
| 20260901001339 | 31 | 146 | 8.0 | 22.5 | 0.00 | 0.00 | 0.00 | 29 | 1018.3 |
| 20260901000615 | 31 | 145 | 4.8 | 24.1 | 0.00 | 0.00 | 0.00 | 29 | 1018.3 |
| 20260901000058 | 31 | 116 | 19.3 | 24.1 | 0.00 | 0.00 | 0.00 | 29 | 1018.3 |
| 20260831235543 | 31 | 113 | 3.2 | 24.1 | 0.00 | 0.00 | 0.00 | 29 | 1018.3 |
| 20260831235034 | 31 | 79 | 12.9 | 24.1 | 0.00 | 0.00 | 0.00 | 28 | 1018.3 |
| 20260831234514 | 31 | 145 | 11.3 | 24.1 | 0.00 | 0.00 | 0.00 | 27 | 1018.3 |
| 20260831234012 | 31 | 138 | 4.8 | 25.7 | 0.00 | 0.00 | 0.00 | 28 | 1018.3 |
| 20260831233510 | 31 | 124 | 14.5 | 25.7 | 0.00 | 0.00 | 0.00 | 27 | 1018.3 |
| 20260831233223 | 31 | 135 | 12.9 | 25.7 | 0.00 | 0.00 | 0.00 | 27 | 1018.3 |
| 20260831232457 | 32 | 150 | 11.3 | 25.7 | 0.00 | 0.00 | 0.00 | 27 | 1018.7 |
| 20260831231947 | 32 | 148 | 6.4 | 24.1 | 0.00 | 0.00 | 0.00 | 27 | 1018.3 |
| 20260831231438 | 32 | 114 | 14.5 | 24.1 | 0.00 | 0.00 | 0.00 | 26 | 1018.3 |
| 20260831231417 | 32 | 111 | 6.4 | 22.5 | 0.00 | 0.00 | 0.00 | 26 | 1018.3 |
| 20260831230427 | 32 | 115 | 11.3 | 22.5 | 0.00 | 0.00 | 0.00 | 26 | 1018.3 |
| 20260831225918 | 32 | 170 | 12.9 | 24.1 | 0.00 | 0.00 | 0.00 | 26 | 1018.3 |
| 20260831225410 | 32 | 102 | 14.5 | 29.0 | 0.00 | 0.00 | 0.00 | 26 | 1018.3 |
| 20260831225132 | 32 | 132 | 16.1 | 29.0 | 0.00 | 0.00 | 0.00 | 26 | 1018.3 |
| 20260831224405 | 32 | 137 | 16.1 | 25.7 | 0.00 | 0.00 | 0.00 | 25 | 1018.0 |
| 20260831223904 | 32 | 146 | 4.8 | 25.7 | 0.00 | 0.00 | 0.00 | 25 | 1018.3 |
| 20260831223401 | 32 | 121 | 9.7 | 24.1 | 0.00 | 0.00 | 0.00 | 25 | 1018.3 |
| 20260831223104 | 32 | 125 | 4.8 | 24.1 | 0.00 | 0.00 | 0.00 | 25 | 1018.3 |
| 20260831222340 | 33 | 121 | 3.2 | 25.7 | 0.00 | 0.00 | 0.00 | 24 | 1018.3 |
| 20260831221818 | 33 | 100 | 16.1 | 24.1 | 0.00 | 0.00 | 0.00 | 24 | 1018.3 |
| 20260831221317 | 33 | 118 | 1.6 | 24.1 | 0.00 | 0.00 | 0.00 | 25 | 1018.3 |
| 20260831220815 | 33 | 71 | 9.7 | 20.9 | 0.00 | 0.00 | 0.00 | 25 | 1018.3 |
| 20260831220251 | 33 | 123 | 9.7 | 22.5 | 0.00 | 0.00 | 0.00 | 25 | 1018.3 |
| 20260831215744 | 33 | 111 | 14.5 | 22.5 | 0.00 | 0.00 | 0.00 | 24 | 1018.3 |
| 20260831215244 | 33 | 121 | 0.0 | 25.7 | 0.00 | 0.00 | 0.00 | 25 | 1018.7 |
| 20260831214739 | 33 | 147 | 3.2 | 25.7 | 0.00 | 0.00 | 0.00 | 25 | 1018.3 |
| 20260831214232 | 33 | 129 | 14.5 | 24.1 | 0.00 | 0.00 | 0.00 | 24 | 1018.7 |
| 20260831213732 | 33 | 92 | 0.0 | 24.1 | 0.00 | 0.00 | 0.00 | 25 | 1018.7 |
| 20260831213211 | 33 | 110 | 0.0 | 22.5 | 0.00 | 0.00 | 0.00 | 24 | 1018.7 |
| 20260831212701 | 33 | 81 | 8.0 | 22.5 | 0.00 | 0.00 | 0.00 | 23 | 1018.7 |
| 20260831212158 | 33 | 106 | 6.4 | 24.1 | 0.00 | 0.00 | 0.00 | 24 | 1019.0 |
| 20260831211912 | 33 | 110 | 9.7 | 24.1 | 0.00 | 0.00 | 0.00 | 24 | 1019.0 |
| 20260831211147 | 33 | 112 | 0.0 | 25.7 | 0.00 | 0.00 | 0.00 | 26 | 1019.0 |
| 20260831210645 | 34 | 114 | 3.2 | 25.7 | 0.00 | 0.00 | 0.00 | 24 | 1019.0 |
| 20260831210402 | 33 | 115 | 0.0 | 24.1 | 0.00 | 0.00 | 0.00 | 24 | 1019.0 |
| 20260831205634 | 33 | 148 | 8.0 | 20.9 | 0.00 | 0.00 | 0.00 | 24 | 1019.0 |
| 20260831205131 | 33 | 153 | 6.4 | 20.9 | 0.00 | 0.00 | 0.00 | 25 | 1019.4 |
| 20260831204615 | 33 | 117 | 6.4 | 20.9 | 0.00 | 0.00 | 0.00 | 25 | 1019.0 |
| 20260831204113 | 33 | 110 | 0.0 | 20.9 | 0.00 | 0.00 | 0.00 | 24 | 1019.4 |
| 20260831203840 | 33 | 100 | 1.6 | 14.5 | 0.00 | 0.00 | 0.00 | 26 | 1019.4 |
| 20260831203112 | 33 | 129 | 0.0 | 20.9 | 0.00 | 0.00 | 0.00 | 27 | 1019.4 |
| 20260831202608 | 33 | 95 | 1.6 | 20.9 | 0.00 | 0.00 | 0.00 | 27 | 1019.4 |
| 20260831202103 | 33 | 104 | 3.2 | 20.9 | 0.00 | 0.00 | 0.00 | 26 | 1019.7 |
| 20260831201815 | 33 | 159 | 11.3 | 16.1 | 0.00 | 0.00 | 0.00 | 25 | 1020.0 |
| 20260831201054 | 33 | 101 | 0.0 | 24.1 | 0.00 | 0.00 | 0.00 | 26 | 1019.7 |
| 20260831200538 | 32 | 147 | 0.0 | 24.1 | 0.00 | 0.00 | 0.00 | 27 | 1020.0 |
| 20260831200034 | 33 | 124 | 8.0 | 24.1 | 0.00 | 0.00 | 0.00 | 26 | 1020.0 |
| 20260831195518 | 33 | 115 | 0.0 | 11.3 | 0.00 | 0.00 | 0.00 | 28 | 1020.0 |
| 20260831195016 | 33 | 153 | 0.0 | 16.1 | 0.00 | 0.00 | 0.00 | 27 | 1020.4 |
| 20260831194514 | 33 | 155 | 4.8 | 22.5 | 0.00 | 0.00 | 0.00 | 27 | 1020.0 |
| 20260831194015 | 33 | 111 | 9.7 | 22.5 | 0.00 | 0.00 | 0.00 | 27 | 1020.0 |
| 20260831193513 | 33 | 107 | 6.4 | 12.9 | 0.00 | 0.00 | 0.00 | 28 | 1020.0 |
| 20260831193014 | 32 | 103 | 0.0 | 22.5 | 0.00 | 0.00 | 0.00 | 28 | 1020.4 |
| 20260831192456 | 33 | 91 | 0.0 | 22.5 | 0.00 | 0.00 | 0.00 | 28 | 1020.0 |
| 20260831191935 | 32 | 128 | 1.6 | 22.5 | 0.00 | 0.00 | 0.00 | 29 | 1020.0 |
| 20260831191417 | 33 | 162 | 11.3 | 22.5 | 0.00 | 0.00 | 0.00 | 29 | 1020.4 |
| 20260831190905 | 33 | 92 | 0.0 | 16.1 | 0.00 | 0.00 | 0.00 | 28 | 1020.4 |
| 20260831190359 | 32 | 122 | 1.6 | 16.1 | 0.00 | 0.00 | 0.00 | 30 | 1020.4 |
| 20260831185844 | 32 | 121 | 6.4 | 14.5 | 0.00 | 0.00 | 0.00 | 30 | 1020.4 |
| 20260831185334 | 32 | 102 | 4.8 | 12.9 | 0.00 | 0.00 | 0.00 | 30 | 1020.7 |
| 20260831184833 | 32 | 70 | 0.0 | 20.9 | 0.00 | 0.00 | 0.00 | 32 | 1020.7 |
| 20260831184813 | 32 | 113 | 14.5 | 22.5 | 0.00 | 0.00 | 0.00 | 32 | 1020.4 |
| 20260831183816 | 32 | 150 | 9.7 | 22.5 | 0.00 | 0.00 | 0.00 | 31 | 1020.7 |
| 20260831183307 | 32 | 141 | 0.0 | 20.9 | 0.00 | 0.00 | 0.00 | 32 | 1020.4 |
| 20260831182802 | 32 | 134 | 0.0 | 20.9 | 0.00 | 0.00 | 0.00 | 32 | 1020.7 |
| 20260831182305 | 32 | 131 | 1.6 | 20.9 | 0.00 | 0.00 | 0.00 | 33 | 1021.1 |
| 20260831181753 | 32 | 118 | 0.0 | 22.5 | 0.00 | 0.00 | 0.00 | 33 | 1020.7 |
| 20260831181250 | 32 | 118 | 8.0 | 22.5 | 0.00 | 0.00 | 0.00 | 33 | 1021.4 |
| 20260831180750 | 32 | 139 | 0.0 | 27.4 | 0.00 | 0.00 | 0.00 | 34 | 1021.1 |
| 20260831180242 | 32 | 140 | 4.8 | 14.5 | 0.00 | 0.00 | 0.00 | 33 | 1021.1 |
| 20260831175735 | 31 | 129 | 0.0 | 17.7 | 0.00 | 0.00 | 0.00 | 34 | 1021.1 |
| 20260831175219 | 31 | 147 | 0.0 | 17.7 | 0.00 | 0.00 | 0.00 | 35 | 1021.1 |
| 20260831174710 | 32 | 131 | 0.0 | 16.1 | 0.00 | 0.00 | 0.00 | 35 | 1021.1 |
| 20260831174206 | 31 | 144 | 6.4 | 16.1 | 0.00 | 0.00 | 0.00 | 35 | 1021.1 |
| 20260831173704 | 31 | 163 | 1.6 | 14.5 | 0.00 | 0.00 | 0.00 | 35 | 1021.4 |
| 20260831173146 | 31 | 112 | 4.8 | 17.7 | 0.00 | 0.00 | 0.00 | 35 | 1021.4 |
| 20260831172640 | 31 | 110 | 0.0 | 17.7 | 0.00 | 0.00 | 0.00 | 34 | 1021.4 |
| 20260831172130 | 31 | 143 | 0.0 | 17.7 | 0.00 | 0.00 | 0.00 | 36 | 1021.7 |
| 20260831171837 | 31 | 181 | 0.0 | 20.9 | 0.00 | 0.00 | 0.00 | 36 | 1021.7 |
| 20260831171113 | 30 | 136 | 1.6 | 20.9 | 0.00 | 0.00 | 0.00 | 36 | 1021.7 |
| 20260831170605 | 30 | 150 | 3.2 | 17.7 | 0.00 | 0.00 | 0.00 | 36 | 1021.7 |
| 20260831170537 | 30 | 151 | 4.8 | 16.1 | 0.00 | 0.00 | 0.00 | 37 | 1021.7 |
| 20260831165552 | 30 | 126 | 8.0 | 16.1 | 0.00 | 0.00 | 0.00 | 37 | 1021.4 |
| 20260831165040 | 30 | 120 | 3.2 | 16.1 | 0.00 | 0.00 | 0.00 | 39 | 1021.7 |
| 20260831164534 | 30 | 142 | 0.0 | 16.1 | 0.00 | 0.00 | 0.00 | 38 | 1021.7 |
| 20260831164247 | 29 | 116 | 0.0 | 12.9 | 0.00 | 0.00 | 0.00 | 41 | 1021.7 |
| 20260831163529 | 30 | 146 | 0.0 | 11.3 | 0.00 | 0.00 | 0.00 | 40 | 1021.4 |
| 20260831163030 | 29 | 105 | 1.6 | 11.3 | 0.00 | 0.00 | 0.00 | 41 | 1021.7 |
| 20260831162754 | 29 | 170 | 1.6 | 14.5 | 0.00 | 0.00 | 0.00 | 41 | 1021.7 |
| 20260831162027 | 29 | 172 | 0.0 | 14.5 | 0.00 | 0.00 | 0.00 | 42 | 1021.7 |
| 20260831161522 | 29 | 199 | 0.0 | 12.9 | 0.00 | 0.00 | 0.00 | 43 | 1021.7 |
| 20260831161013 | 28 | 144 | 0.0 | 12.9 | 0.00 | 0.00 | 0.00 | 42 | 1021.4 |
| 20260831160507 | 28 | 204 | 0.0 | 14.5 | 0.00 | 0.00 | 0.00 | 44 | 1021.4 |
| 20260831160000 | 28 | 125 | 1.6 | 14.5 | 0.00 | 0.00 | 0.00 | 45 | 1021.1 |
| 20260831155457 | 27 | 147 | 1.6 | 14.5 | 0.00 | 0.00 | 0.00 | 45 | 1021.1 |
| 20260831154950 | 27 | 140 | 3.2 | 14.5 | 0.00 | 0.00 | 0.00 | 46 | 1021.4 |
| 20260831154447 | 27 | 142 | 0.0 | 11.3 | 0.00 | 0.00 | 0.00 | 46 | 1021.4 |
| 20260831153946 | 27 | 199 | 0.0 | 11.3 | 0.00 | 0.00 | 0.00 | 47 | 1021.1 |
| 20260831153653 | 27 | 150 | 0.0 | 11.3 | 0.00 | 0.00 | 0.00 | 47 | 1021.1 |
| 20260831152915 | 27 | 203 | 0.0 | 9.7 | 0.00 | 0.00 | 0.00 | 48 | 1021.4 |
| 20260831152415 | 27 | 123 | 3.2 | 12.9 | 0.00 | 0.00 | 0.00 | 48 | 1021.4 |
| 20260831152115 | 27 | 198 | 1.6 | 12.9 | 0.00 | 0.00 | 0.00 | 48 | 1021.4 |
| 20260831151347 | 27 | 207 | 0.0 | 11.3 | 0.00 | 0.00 | 0.00 | 49 | 1021.4 |
| 20260831150837 | 26 | 196 | 0.0 | 4.8 | 0.00 | 0.00 | 0.00 | 49 | 1021.4 |
| 20260831150328 | 26 | 166 | 0.0 | 6.4 | 0.00 | 0.00 | 0.00 | 51 | 1021.7 |
| 20260831145826 | 26 | 138 | 0.0 | 16.1 | 0.00 | 0.00 | 0.00 | 51 | 1021.4 |
| 20260831145326 | 25 | 197 | 0.0 | 17.7 | 0.00 | 0.00 | 0.00 | 51 | 1021.1 |
| 20260831144814 | 25 | 130 | 0.0 | 17.7 | 0.00 | 0.00 | 0.00 | 52 | 1021.1 |
| 20260831144306 | 25 | 107 | 0.0 | 14.5 | 0.00 | 0.00 | 0.00 | 53 | 1020.7 |
| 20260831143757 | 25 | 135 | 0.0 | 6.4 | 0.00 | 0.00 | 0.00 | 53 | 1020.7 |
| 20260831143254 | 25 | 150 | 0.0 | 20.9 | 0.00 | 0.00 | 0.00 | 53 | 1020.7 |
| 20260831142753 | 24 | 191 | 14.5 | 20.9 | 0.00 | 0.00 | 0.00 | 54 | 1020.7 |
| 20260831142250 | 24 | 139 | 12.9 | 16.1 | 0.00 | 0.00 | 0.00 | 55 | 1020.7 |
| 20260831142227 | 24 | 144 | 0.0 | 14.5 | 0.00 | 0.00 | 0.00 | 55 | 1020.7 |
| 20260831141453 | 23 | 133 | 1.6 | 17.7 | 0.00 | 0.00 | 0.00 | 56 | 1021.1 |
| 20260831140720 | 23 | 153 | 6.4 | 17.7 | 0.00 | 0.00 | 0.00 | 57 | 1021.1 |
| 20260831140428 | 23 | 109 | 0.0 | 12.9 | 0.00 | 0.00 | 0.00 | 56 | 1020.7 |
| 20260831135651 | 23 | 185 | 0.0 | 9.7 | 0.00 | 0.00 | 0.00 | 56 | 1020.4 |
| 20260831135147 | 23 | 194 | 1.6 | 4.8 | 0.00 | 0.00 | 0.00 | 57 | 1020.4 |
| 20260831134638 | 23 | 131 | 1.6 | 3.2 | 0.00 | 0.00 | 0.00 | 56 | 1020.4 |
| 20260831134129 | 23 | 181 | 0.0 | 1.6 | 0.00 | 0.00 | 0.00 | 57 | 1020.7 |
| 20260831133608 | 23 | 172 | 0.0 | 1.6 | 0.00 | 0.00 | 0.00 | 57 | 1020.4 |
| 20260831133102 | 22 | 178 | 0.0 | 1.6 | 0.00 | 0.00 | 0.00 | 57 | 1020.7 |
| 20260831132601 | 22 | 197 | 0.0 | 3.2 | 0.00 | 0.00 | 0.00 | 58 | 1020.4 |
| 20260831132053 | 22 | 189 | 0.0 | 3.2 | 0.00 | 0.00 | 0.00 | 58 | 1020.4 |
| 20260831131551 | 22 | 170 | 0.0 | 0.0 | 0.00 | 0.00 | 0.00 | 58 | 1020.0 |
| 20260831131044 | 22 | 128 | 0.0 | 0.0 | 0.00 | 0.00 | 0.00 | 58 | 1019.7 |
| 20260831130540 | 21 | 186 | 0.0 | 0.0 | 0.00 | 0.00 | 0.00 | 59 | 1020.0 |
| 20260831130040 | 21 | 192 | 0.0 | 0.0 | 0.00 | 0.00 | 0.00 | 59 | 1020.0 |
| 20260831125535 | 21 | 201 | 0.0 | 0.0 | 0.00 | 0.00 | 0.00 | 59 | 1020.0 |
| 20260831125234 | 21 | 189 | 0.0 | 0.0 | 0.00 | 0.00 | 0.00 | 60 | 1019.7 |
| 20260831124738 | 21 | 188 | 0.0 | 1.6 | 0.00 | 0.00 | 0.00 | 60 | 1019.7 |
| 20260831124004 | 21 | 197 | 0.0 | 1.6 | 0.00 | 0.00 | 0.00 | 60 | 1019.7 |
| 20260831123455 | 21 | 172 | 0.0 | 1.6 | 0.00 | 0.00 | 0.00 | 60 | 1019.7 |
| 20260831122946 | 21 | 191 | 0.0 | 1.6 | 0.00 | 0.00 | 0.00 | 59 | 1019.4 |
| 20260831122434 | 21 | 187 | 0.0 | 1.6 | 0.00 | 0.00 | 0.00 | 58 | 1019.4 |
| 20260831121927 | 21 | 199 | 0.0 | 1.6 | 0.00 | 0.00 | 0.00 | 58 | 1019.4 |
| 20260831121424 | 21 | 198 | 0.0 | 1.6 | 0.00 | 0.00 | 0.00 | 58 | 1019.4 |
| 20260831120923 | 21 | 163 | 0.0 | 1.6 | 0.00 | 0.00 | 0.00 | 58 | 1019.4 |
| 20260831120414 | 21 | 125 | 0.0 | 1.6 | 0.00 | 0.00 | 0.00 | 57 | 1019.4 |
| 20260831115905 | 21 | 151 | 0.0 | 0.0 | 0.00 | 0.00 | 0.00 | 57 | 1019.7 |
| 20260831115403 | 21 | 196 | 0.0 | 1.6 | 0.00 | 0.00 | 0.00 | 56 | 1019.7 |
| 20260831114855 | 21 | 199 | 0.0 | 1.6 | 0.00 | 0.00 | 0.00 | 56 | 1019.7 |
| 20260831114347 | 21 | 167 | 0.0 | 0.0 | 0.00 | 0.00 | 0.00 | 57 | 1019.4 |
| 20260831113841 | 21 | 164 | 0.0 | 0.0 | 0.00 | 0.00 | 0.00 | 56 | 1019.4 |
| 20260831113326 | 21 | 164 | 0.0 | 0.0 | 0.00 | 0.00 | 0.00 | 57 | 1020.0 |
| 20260831112814 | 21 | 164 | 0.0 | 0.0 | 0.00 | 0.00 | 0.00 | 57 | 1019.4 |
| 20260831112313 | 21 | 164 | 0.0 | 0.0 | 0.00 | 0.00 | 0.00 | 57 | 1019.4 |
| 20260831112038 | 21 | 164 | 0.0 | 0.0 | 0.00 | 0.00 | 0.00 | 57 | 1019.7 |
| 20260831111311 | 21 | 164 | 0.0 | 0.0 | 0.00 | 0.00 | 0.00 | 56 | 1019.4 |
| 20260831110807 | 21 | 164 | 0.0 | 0.0 | 0.00 | 0.00 | 0.00 | 56 | 1019.7 |
| 20260831110303 | 21 | 164 | 0.0 | 0.0 | 0.00 | 0.00 | 0.00 | 56 | 1019.7 |
| 20260831110010 | 21 | 164 | 0.0 | 0.0 | 0.00 | 0.00 | 0.00 | 55 | 1019.4 |
| 20260831105240 | 21 | 165 | 0.0 | 0.0 | 0.00 | 0.00 | 0.00 | 56 | 1019.4 |
| 20260831104736 | 21 | 165 | 0.0 | 0.0 | 0.00 | 0.00 | 0.00 | 55 | 1019.4 |
| 20260831104236 | 21 | 165 | 0.0 | 0.0 | 0.00 | 0.00 | 0.00 | 55 | 1019.4 |
| 20260831103735 | 21 | 165 | 0.0 | 0.0 | 0.00 | 0.00 | 0.00 | 55 | 1019.4 |
| 20260831103452 | 21 | 165 | 0.0 | 0.0 | 0.00 | 0.00 | 0.00 | 54 | 1019.7 |
| 20260831102733 | 21 | 165 | 0.0 | 0.0 | 0.00 | 0.00 | 0.00 | 54 | 1019.4 |
| 20260831102226 | 21 | 163 | 0.0 | 0.0 | 0.00 | 0.00 | 0.00 | 54 | 1019.7 |
| 20260831101948 | 22 | 163 | 0.0 | 0.0 | 0.00 | 0.00 | 0.00 | 53 | 1019.7 |
| 20260831101158 | 22 | 162 | 0.0 | 0.0 | 0.00 | 0.00 | 0.00 | 53 | 1019.4 |
| 20260831100654 | 22 | 162 | 0.0 | 0.0 | 0.00 | 0.00 | 0.00 | 53 | 1019.4 |
| 20260831100135 | 22 | 161 | 0.0 | 0.0 | 0.00 | 0.00 | 0.00 | 53 | 1019.4 |
| 20260831095622 | 22 | 162 | 0.0 | 0.0 | 0.00 | 0.00 | 0.00 | 53 | 1019.4 |
| 20260831095113 | 22 | 162 | 0.0 | 0.0 | 0.00 | 0.00 | 0.00 | 53 | 1019.4 |
| 20260831094605 | 22 | 161 | 0.0 | 0.0 | 0.00 | 0.00 | 0.00 | 52 | 1019.7 |
| 20260831094050 | 22 | 162 | 0.0 | 0.0 | 0.00 | 0.00 | 0.00 | 53 | 1019.4 |
| 20260831093801 | 22 | 162 | 0.0 | 0.0 | 0.00 | 0.00 | 0.00 | 52 | 1019.4 |
| 20260831093255 | 22 | 159 | 0.0 | 0.0 | 0.00 | 0.00 | 0.00 | 53 | 1019.7 |
| 20260831092516 | 22 | 160 | 0.0 | 0.0 | 0.00 | 0.00 | 0.00 | 52 | 1019.4 |
| 20260831092014 | 22 | 159 | 0.0 | 0.0 | 0.00 | 0.00 | 0.00 | 52 | 1019.4 |
| 20260831091514 | 22 | 159 | 0.0 | 0.0 | 0.00 | 0.00 | 0.00 | 52 | 1019.7 |
| 20260831091005 | 22 | 159 | 0.0 | 0.0 | 0.00 | 0.00 | 0.00 | 51 | 1019.4 |
| 20260831090501 | 22 | 159 | 0.0 | 0.0 | 0.00 | 0.00 | 0.00 | 51 | 1019.4 |
| 20260831090000 | 22 | 152 | 0.0 | 0.0 | 0.00 | 0.00 | 0.00 | 51 | 1019.4 |
| 20260831085452 | 22 | 150 | 0.0 | 0.0 | 0.00 | 0.00 | 0.00 | 50 | 1019.0 |
| 20260831085200 | 22 | 146 | 0.0 | 0.0 | 0.00 | 0.00 | 0.00 | 51 | 1019.0 |
| 20260831084423 | 22 | 139 | 0.0 | 0.0 | 0.00 | 0.00 | 0.00 | 51 | 1019.4 |
| 20260831083922 | 22 | 139 | 0.0 | 0.0 | 0.00 | 0.00 | 0.00 | 50 | 1019.0 |
| 20260831083422 | 23 | 140 | 0.0 | 0.0 | 0.00 | 0.00 | 0.00 | 50 | 1019.0 |
| 20260831082909 | 23 | 140 | 0.0 | 0.0 | 0.00 | 0.00 | 0.00 | 49 | 1019.0 |
| 20260831082629 | 23 | 141 | 0.0 | 0.0 | 0.00 | 0.00 | 0.00 | 49 | 1019.0 |
| 20260831081900 | 23 | 143 | 0.0 | 0.0 | 0.00 | 0.00 | 0.00 | 49 | 1018.7 |
| 20260831081357 | 23 | 138 | 0.0 | 0.0 | 0.00 | 0.00 | 0.00 | 49 | 1019.0 |
| 20260831080845 | 23 | 147 | 0.0 | 0.0 | 0.00 | 0.00 | 0.00 | 48 | 1019.0 |
| 20260831080333 | 23 | 126 | 0.0 | 0.0 | 0.00 | 0.00 | 0.00 | 48 | 1019.4 |
| 20260831075833 | 23 | 142 | 0.0 | 0.0 | 0.00 | 0.00 | 0.00 | 48 | 1019.0 |
| 20260831075323 | 23 | 143 | 0.0 | 0.0 | 0.00 | 0.00 | 0.00 | 48 | 1019.0 |
| 20260831074814 | 23 | 143 | 0.0 | 0.0 | 0.00 | 0.00 | 0.00 | 48 | 1019.4 |
| 20260831074314 | 23 | 144 | 0.0 | 0.0 | 0.00 | 0.00 | 0.00 | 48 | 1019.0 |
| 20260831073810 | 23 | 157 | 0.0 | 0.0 | 0.00 | 0.00 | 0.00 | 47 | 1019.4 |
| 20260831073256 | 23 | 138 | 0.0 | 0.0 | 0.00 | 0.00 | 0.00 | 47 | 1019.4 |
| 20260831072753 | 23 | 138 | 0.0 | 0.0 | 0.00 | 0.00 | 0.00 | 47 | 1019.0 |
| 20260831072237 | 23 | 140 | 0.0 | 0.0 | 0.00 | 0.00 | 0.00 | 47 | 1019.4 |
| 20260831071733 | 23 | 138 | 0.0 | 0.0 | 0.00 | 0.00 | 0.00 | 46 | 1019.0 |
| 20260831071220 | 23 | 156 | 0.0 | 1.6 | 0.00 | 0.00 | 0.00 | 46 | 1019.4 |
| 20260831070709 | 24 | 138 | 0.0 | 3.2 | 0.00 | 0.00 | 0.00 | 45 | 1019.4 |
| 20260831070209 | 24 | 134 | 0.0 | 4.8 | 0.00 | 0.00 | 0.00 | 45 | 1019.0 |
| 20260831065930 | 24 | 150 | 0.0 | 4.8 | 0.00 | 0.00 | 0.00 | 45 | 1019.0 |
| 20260831065418 | 24 | 158 | 0.0 | 1.6 | 0.00 | 0.00 | 0.00 | 45 | 1019.0 |
| 20260831064647 | 24 | 142 | 0.0 | 1.6 | 0.00 | 0.00 | 0.00 | 44 | 1018.7 |
| 20260831064134 | 24 | 146 | 0.0 | 1.6 | 0.00 | 0.00 | 0.00 | 45 | 1019.4 |
| 20260831064119 | 24 | 147 | 0.0 | 1.6 | 0.00 | 0.00 | 0.00 | 44 | 1019.0 |
| 20260831063126 | 24 | 142 | 0.0 | 1.6 | 0.00 | 0.00 | 0.00 | 44 | 1019.0 |
| 20260831062625 | 24 | 146 | 0.0 | 3.2 | 0.00 | 0.00 | 0.00 | 44 | 1019.0 |
| 20260831062114 | 24 | 146 | 0.0 | 3.2 | 0.00 | 0.00 | 0.00 | 44 | 1019.4 |
| 20260831061614 | 24 | 127 | 0.0 | 1.6 | 0.00 | 0.00 | 0.00 | 44 | 1019.4 |
| 20260831061327 | 25 | 146 | 0.0 | 1.6 | 0.00 | 0.00 | 0.00 | 43 | 1019.0 |
| 20260831060557 | 25 | 131 | 0.0 | 1.6 | 0.00 | 0.00 | 0.00 | 43 | 1019.4 |
| 20260831060034 | 25 | 143 | 0.0 | 1.6 | 0.00 | 0.00 | 0.00 | 43 | 1019.0 |
| 20260831055535 | 25 | 127 | 0.0 | 1.6 | 0.00 | 0.00 | 0.00 | 42 | 1019.0 |
| 20260831055023 | 25 | 117 | 0.0 | 6.4 | 0.00 | 0.00 | 0.00 | 42 | 1019.4 |
| 20260831054733 | 25 | 167 | 0.0 | 9.7 | 0.00 | 0.00 | 0.00 | 42 | 1019.0 |
| 20260831054003 | 25 | 147 | 0.0 | 11.3 | 0.00 | 0.00 | 0.00 | 41 | 1018.7 |
| 20260831053502 | 25 | 108 | 1.6 | 11.3 | 0.00 | 0.00 | 0.00 | 41 | 1018.7 |
| 20260831052947 | 25 | 164 | 3.2 | 11.3 | 0.00 | 0.00 | 0.00 | 41 | 1018.7 |
| 20260831052428 | 25 | 149 | 0.0 | 11.3 | 0.00 | 0.00 | 0.00 | 40 | 1019.0 |
| 20260831051929 | 25 | 133 | 1.6 | 11.3 | 0.00 | 0.00 | 0.00 | 40 | 1018.7 |
| 20260831051646 | 26 | 126 | 0.0 | 6.4 | 0.00 | 0.00 | 0.00 | 40 | 1018.7 |
| 20260831050914 | 26 | 136 | 0.0 | 6.4 | 0.00 | 0.00 | 0.00 | 40 | 1018.3 |
| 20260831050615 | 26 | 134 | 1.6 | 6.4 | 0.00 | 0.00 | 0.00 | 40 | 1018.7 |
| 20260831045850 | 26 | 141 | 0.0 | 9.7 | 0.00 | 0.00 | 0.00 | 40 | 1018.7 |
| 20260831045343 | 26 | 137 | 0.0 | 11.3 | 0.00 | 0.00 | 0.00 | 39 | 1019.0 |
| 20260831044836 | 26 | 138 | 0.0 | 11.3 | 0.00 | 0.00 | 0.00 | 39 | 1018.7 |
| 20260831044332 | 26 | 156 | 3.2 | 14.5 | 0.00 | 0.00 | 0.00 | 38 | 1018.3 |
| 20260831044054 | 26 | 126 | 1.6 | 17.7 | 0.00 | 0.00 | 0.00 | 38 | 1018.3 |
| 20260831043552 | 26 | 135 | 0.0 | 17.7 | 0.00 | 0.00 | 0.00 | 38 | 1018.7 |
| 20260831042827 | 26 | 117 | 3.2 | 14.5 | 0.00 | 0.00 | 0.00 | 37 | 1018.7 |
| 20260831042801 | 27 | 165 | 4.8 | 14.5 | 0.00 | 0.00 | 0.00 | 37 | 1018.3 |
| 20260831041758 | 27 | 115 | 0.0 | 6.4 | 0.00 | 0.00 | 0.00 | 37 | 1018.3 |
| 20260831041256 | 27 | 157 | 1.6 | 20.9 | 0.00 | 0.00 | 0.00 | 36 | 1018.3 |